Millville, NJ

8:41 AM EST on December 09, 2019 (GMT -0500)
Millville Municipal

Weather History for KMIV - October, 2019

Change the Weather History Date:

Saturday, October 12, 2019

  Actual Average Record
Temperature  
Mean Temperature 58 °F -  
Max Temperature 75 °F 66 °F 86 °F (1954)
Min Temperature 43 °F 46 °F 30 °F (1964)
Degree Days  
Heating Degree Days 7    
Growing Degree Days 8 (Base 50)    
Moisture  
Dew Point 45 °F    
Average Humidity 65    
Maximum Humidity 90    
Minimum Humidity 35    
Precipitation  
Precipitation 0.00 in - - ()
Sea Level Pressure  
Sea Level Pressure 29.99 in    
Wind  
Wind Speed 4 mph (WNW)    
Max Wind Speed 10 mph    
Max Gust Speed -    
Visibility 10 miles    
Events      
Averages and records for this station are not official NWS values.
T = Trace of Precipitation, MM = Missing Value Source: NWS Daily Summary

Daily Weather History Graph

Daily Weather History Graph

Search for Another Location

Airport or City:

Astronomy

Oct. 12, 2019 Rise Set
Actual Time 7:06 AM EDT 6:26 PM EDT
Civil Twilight 6:39 AM EDT 6:53 PM EDT
Nautical Twilight 6:08 AM EDT 7:24 PM EDT
Astronomical Twilight 5:37 AM EDT 7:55 PM EDT
Moon 6:20 PM EDT (10/12) 5:42 AM EDT (10/12)
Length of Visible Light 12h 13m
Length of Day
11h 19m
Waxing Gibbous, 99% of the Moon is Illuminated
Oct 12
Waxing Gibbous
Oct 13
Full
Oct 21
Last Quarter
Oct 27
New
Nov 4
First Quarter

Hourly Weather History & Observations

Time (EDT) Temp. Windchill Dew Point Humidity Pressure Visibility Wind Dir Wind Speed Gust Speed Precip Events Conditions
12:54 AM 50.0 °F - 45.0 °F 83% 30.03 in 10.0 mi West 3.5 mph - N/A   Scattered Clouds
1:54 AM 48.0 °F - 43.0 °F 83% 30.00 in 10.0 mi North 3.5 mph - N/A   Clear
2:54 AM 48.0 °F - 44.1 °F 86% 30.01 in 10.0 mi West 4.6 mph - N/A   Clear
3:54 AM 46.9 °F - 43.0 °F 86% 30.00 in 10.0 mi West 3.5 mph - N/A   Clear
4:54 AM 44.1 °F 42.5 °F 41.0 °F 89% 29.99 in 10.0 mi WSW 3.5 mph - N/A   Clear
5:54 AM 43.0 °F - 39.9 °F 89% 29.99 in 10.0 mi Calm Calm - N/A   Clear
6:54 AM 45.0 °F - 42.1 °F 90% 30.00 in 10.0 mi Calm Calm - N/A   Clear
7:54 AM 48.9 °F - 44.1 °F 83% 30.00 in 10.0 mi Calm Calm - N/A   Clear
8:54 AM 57.0 °F - 45.0 °F 64% 30.01 in 10.0 mi NNW 4.6 mph - N/A   Clear
9:54 AM 57.9 °F - 44.1 °F 60% 30.01 in 10.0 mi NNW 4.6 mph - N/A   Clear
10:54 AM 63.0 °F - 43.0 °F 48% 30.00 in 10.0 mi North 5.8 mph - N/A   Clear
11:54 AM 66.9 °F - 43.0 °F 42% 29.99 in 10.0 mi NW 9.2 mph - N/A   Clear
12:54 PM 70.0 °F - 44.1 °F 39% 29.97 in 10.0 mi NW 8.1 mph - N/A   Partly Cloudy
1:54 PM 71.1 °F - 45.0 °F 39% 29.96 in 10.0 mi WSW 8.1 mph - N/A   Clear
2:54 PM 73.0 °F - 45.0 °F 37% 29.95 in 10.0 mi West 10.4 mph - N/A   Clear
3:54 PM 73.0 °F - 44.1 °F 35% 29.95 in 10.0 mi NNW 9.2 mph - N/A   Partly Cloudy
4:54 PM 70.0 °F - 45.0 °F 41% 29.96 in 10.0 mi NW 6.9 mph - N/A   Scattered Clouds
5:54 PM 69.1 °F - 46.0 °F 44% 29.96 in 10.0 mi WNW 5.8 mph - N/A   Scattered Clouds
6:54 PM 66.0 °F - 48.0 °F 52% 29.97 in 10.0 mi WNW 5.8 mph - N/A   Mostly Cloudy
7:54 PM 64.0 °F - 48.9 °F 58% 29.99 in 10.0 mi West 4.6 mph - N/A   Mostly Cloudy
8:54 PM 61.0 °F - 51.1 °F 70% 30.01 in 10.0 mi West 4.6 mph - 0.00 in   Mostly Cloudy
9:54 PM 55.9 °F - 48.9 °F 77% 30.02 in 10.0 mi West 4.6 mph - N/A   Partly Cloudy
10:54 PM 54.0 °F - 48.0 °F 80% 30.03 in 10.0 mi Calm Calm - N/A   Partly Cloudy
11:54 PM 53.1 °F - 48.9 °F 86% 30.02 in 10.0 mi Calm Calm - N/A   Mostly Cloudy